Powrót do katalogu

DELTA 1 DEB

AktywnyPO
NORAD 21548·DEBRIS·🇺🇸 United States

Wystrzelony Jun 12, 1975 z Vandenberg Space Force Base

Loading…

Następne Przeloty (najbliższe 24 godziny)

TLE

ŚwieżeSource: Space-Track

Epoka: Sep 13, 2026, 03:56 UTC

1 21548U 75052HC  26256.16396037 -.00000228  00000-0 -58278-3 0  9992
2 21548  99.8045 327.4769 0246925 191.2238 196.8021 12.95783700670854

Śledź DELTA 1 DEB w czasie rzeczywistym z AllMySat

Download on the App Store